Overview Statistics Trail Chart Weather Telemetry Raw packets
 

This is the latest recevied weather packets stored in our database for station/object OK1FET-5. If no packets are shown the sender has not sent any weather packets the latest 10 day(s).

<< 27 28 29 30 31 32 33 >>
Time Temp. Humidity Pressure Rain* Wind** Luminosity Snow
1788149388 16.11° C 72% 1015.3 hPa - - - -
1788148792 15.56° C 74% 1015.4 hPa - - - -
1788148196 15.56° C 73% 1015.5 hPa - - - -
1788147600 16.11° C 74% 1015.5 hPa - - - -
1788147005 16.11° C 73% 1015.5 hPa - - - -
1788146409 16.67° C 68% 1015.6 hPa - - - -
1788145813 16.67° C 70% 1015.7 hPa - - - -
1788144622 16.11° C 72% 1015.7 hPa - - - -
1788144026 16.67° C 73% 1015.9 hPa - - - -
1788143430 16.67° C 67% 1015.9 hPa - - - -
1788142834 16.67° C 67% 1015.9 hPa - - - -
1788142239 16.67° C 67% 1016 hPa - - - -
1788141643 16.67° C 67% 1016.1 hPa - - - -
1788141047 16.67° C 67% 1016.1 hPa - - - -
1788140451 16.67° C 67% 1016.2 hPa - - - -
1788139856 16.67° C 66% 1016.2 hPa - - - -
1788139260 17.22° C 66% 1016.1 hPa - - - -
1788138664 17.22° C 66% 1016.3 hPa - - - -
1788138069 17.78° C 66% 1016.2 hPa - - - -
1788137473 17.78° C 65% 1016.3 hPa - - - -
1788136877 17.78° C 64% 1016.4 hPa - - - -
1788136281 18.33° C 64% 1016.4 hPa - - - -
1788135685 18.33° C 64% 1016.4 hPa - - - -
1788135090 18.33° C 64% 1016.4 hPa - - - -
1788134494 18.33° C 64% 1016.3 hPa - - - -

* Rain since midnight (hover to see other rain measurements)
** Current wind speed in m/s (hover to see current wind gust speed)